User: anonymous   Login
Location: Regona
(45.2000°N, 9.8167°E)
Time: 23:45:27
(UTC+00:00)
Language:

Cosmos 2263 Rocket - Orbit

View from above orbital plane
View from above orbital plane
View from above satellite
View from above satellite

Ground track
Ground track

The orbit data is extracted from the following two-line orbital elements,

1 22803U 93059B   21127.46195538 -.00000113  00000-0 -32221-4 0  9996
2 22803  70.9880 136.4419 0016510  14.8587 345.3018 14.16835704429191
Epoch (UTC): 07 May 2021 11:05:12
Eccentricity: 0.0016510
inclination: 70.9880°
perigee height: 824 km
apogee height: 848 km
right ascension of ascending node: 136.4419°
argument of perigee: 14.8587°
revolutions per day: 14.16835704
mean anomaly at epoch: 345.3018°
orbit number at epoch: 42919

The dashed part of the orbit path shows where the satellite is in the earth's shadow,  

DLR